User: anonymous   Login
Location: Vancouver
(49.2500°N, 123.1330°W)
Time: 16:00:17
(UTC-08:00)
Language:

Cosmos 676 Rocket - Orbit

View from above orbital plane
View from above orbital plane
View from above satellite
View from above satellite

Ground track
Ground track

The orbit data is extracted from the following two-line orbital elements,

1 07434U 74071B   16343.14356118  .00000090  00000-0  39301-4 0  9992
2 07434  74.0460 204.8624 0020482 165.6954 194.4783 14.36604837209277
Epoch (UTC): 08 December 2016 03:26:43
Eccentricity: 0.0020482
inclination: 74.0460°
perigee height: 755 km
apogee height: 784 km
right ascension of ascending node: 204.8624°
argument of perigee: 165.6954°
revolutions per day: 14.36604837
mean anomaly at epoch: 194.4783°
orbit number at epoch: 20927

The dashed part of the orbit path shows where the satellite is in the earth's shadow,  

DLR